Morganton, NC

11:55 AM EDT on August 19, 2017 (GMT -0400)
Morganton-Lenoir

Weather History for KMRN - June, 2013

Change the Weather History Date:

Monday, June 3, 2013

  Actual Average (KHKY) Record (KHKY)
Temperature  
Mean Temperature 74 °F -  
Max Temperature 85 °F 81 °F 99 °F (1951)
Min Temperature 64 °F 60 °F 47 °F (1956)
Cooling Degree Days 10    
Growing Degree Days 24 (Base 50)    
Moisture  
Dew Point 63 °F    
Average Humidity 79    
Maximum Humidity 100    
Minimum Humidity 30    
Precipitation  
Precipitation 0.01 in - - ()
Sea Level Pressure  
Sea Level Pressure 29.97 in    
Wind  
Wind Speed 1 mph (NNW)    
Max Wind Speed 10 mph    
Max Gust Speed 17 mph    
Visibility 7 miles    
Events Fog    
Averages and records for this station are not official NWS values.
T = Trace of Precipitation, MM = Missing Value Source: NWS Daily Summary

Daily Weather History Graph

Daily Weather History Graph

Search for Another Location

Airport or City:

Trip Planner

Search our weather history database for the weather conditions in past years. The results will help you decide how hot, cold, wet, or windy it might be!

Date:

Astronomy

Jun. 03, 2013 Rise Set
Actual Time 6:10 AM EDT 8:38 PM EDT
Civil Twilight 5:41 AM EDT 9:08 PM EDT
Nautical Twilight 5:04 AM EDT 9:45 PM EDT
Astronomical Twilight 4:24 AM EDT 10:25 PM EDT
Moon 2:59 AM EDT (6/3) 4:15 PM EDT (6/3)
Length of Visible Light 15h 27m
Length of Day
14h 27m
Waning Crescent, 22% of the Moon is Illuminated
Jun 3
Waning Crescent
Jun 8
New
Jun 16
First Quarter
Jun 23
Full
Jun 30
Last Quarter

Hourly Weather History & Observations

Time (EDT) Temp. Heat Index Dew Point Humidity Pressure Visibility Wind Dir Wind Speed Gust Speed Precip Events Conditions
12:15 AM 65.7 °F - 65.7 °F 100% 30.00 in 3.0 mi Calm Calm - N/A   Overcast
12:35 AM 65.7 °F - 65.7 °F 100% 30.00 in 5.0 mi Calm Calm - N/A   Overcast
12:55 AM 65.5 °F - 65.5 °F 100% 30.00 in 1.8 mi Calm Calm - N/A   Overcast
1:15 AM 65.7 °F - 65.7 °F 100% 30.00 in 1.0 mi Calm Calm - N/A   Overcast
1:35 AM 65.8 °F - 65.8 °F 100% 30.00 in 1.5 mi Calm Calm - N/A   Overcast
1:55 AM 66.0 °F - 66.0 °F 100% 29.99 in 5.0 mi Calm Calm - N/A   Overcast
2:15 AM 65.8 °F - 65.8 °F 100% 29.99 in 1.5 mi Calm Calm - N/A   Overcast
2:35 AM 65.8 °F - 65.8 °F 100% 29.99 in 0.5 mi Calm Calm - N/A Fog Fog
2:55 AM 65.8 °F - 65.8 °F 100% 29.98 in 0.5 mi Calm Calm - N/A Fog Fog
3:15 AM 65.8 °F - 65.8 °F 100% 29.97 in 2.0 mi Calm Calm - N/A   Overcast
3:35 AM 66.0 °F - 66.0 °F 100% 29.97 in 0.8 mi Calm Calm - N/A   Overcast
3:55 AM 65.7 °F - 65.7 °F 100% 29.96 in 0.5 mi Calm Calm - N/A Fog Fog
4:15 AM 65.7 °F - 65.7 °F 100% 29.95 in 1.0 mi Calm Calm - N/A   Overcast
4:35 AM 65.7 °F - 65.7 °F 100% 29.96 in 0.5 mi Calm Calm - N/A Fog Fog
4:55 AM 65.5 °F - 65.5 °F 100% 29.96 in 0.5 mi Calm Calm - N/A Fog Fog
5:15 AM 65.5 °F - 65.5 °F 100% 29.96 in 1.0 mi Calm Calm - 0.01 in   Overcast
5:35 AM 65.3 °F - 65.3 °F 100% 29.96 in 2.5 mi Calm Calm - 0.01 in   Overcast
5:55 AM 65.3 °F - 65.3 °F 100% 29.96 in 4.0 mi Calm Calm - 0.01 in   Overcast
6:15 AM 65.7 °F - 65.7 °F 100% 29.97 in 5.0 mi Calm Calm - N/A   Overcast
6:35 AM 65.5 °F - 65.5 °F 100% 29.97 in 4.0 mi Calm Calm - N/A   Overcast
6:55 AM 65.7 °F - 65.7 °F 100% 29.97 in 5.0 mi Calm Calm - N/A   Overcast
7:15 AM 65.7 °F - 65.7 °F 100% 29.97 in 2.5 mi Calm Calm - N/A   Overcast
7:35 AM 65.7 °F - 65.7 °F 100% 29.98 in 0.5 mi NNW 3.5 mph - N/A Fog Fog
7:55 AM 65.7 °F - 65.7 °F 100% 29.98 in 0.5 mi Calm Calm - N/A Fog Fog
8:15 AM 65.7 °F - 65.7 °F 100% 29.98 in 7.0 mi Calm Calm - N/A   Overcast
8:35 AM 65.8 °F - 65.8 °F 100% 29.99 in 10.0 mi West 3.5 mph - N/A   Overcast
8:55 AM 66.4 °F - 66.4 °F 100% 30.00 in 10.0 mi Calm Calm - N/A   Overcast
9:15 AM 66.7 °F - 66.7 °F 100% 29.99 in 10.0 mi Calm Calm - N/A   Overcast
9:35 AM 67.8 °F - 67.8 °F 100% 29.99 in 10.0 mi SW 3.5 mph - N/A   Mostly Cloudy
9:55 AM 68.2 °F - 66.9 °F 96% 29.99 in 10.0 mi Calm Calm - N/A   Mostly Cloudy
10:15 AM 68.9 °F - 66.4 °F 92% 30.00 in 10.0 mi Calm Calm - N/A   Mostly Cloudy
10:35 AM 69.6 °F - 66.7 °F 91% 29.99 in 10.0 mi Calm Calm - N/A   Scattered Clouds
10:55 AM 70.9 °F - 66.2 °F 85% 30.00 in 10.0 mi Calm Calm - N/A   Scattered Clouds
11:15 AM 72.0 °F - 66.4 °F 83% 30.00 in 10.0 mi South 3.5 mph - N/A   Scattered Clouds
11:35 AM 73.4 °F - 65.7 °F 77% 30.00 in 10.0 mi Calm Calm - N/A   Scattered Clouds
11:55 AM 75.0 °F - 66.6 °F 75% 29.99 in 10.0 mi Calm Calm - N/A   Clear
12:15 PM 75.9 °F - 64.2 °F 67% 29.99 in 10.0 mi Calm Calm - N/A   Clear
12:35 PM 77.7 °F - 65.1 °F 65% 29.98 in 10.0 mi SE 4.6 mph - N/A   Clear
12:55 PM 78.3 °F - 63.1 °F 60% 29.97 in 10.0 mi Calm Calm - N/A   Clear
1:15 PM 78.8 °F - 64.0 °F 60% 29.97 in 10.0 mi Calm Calm - N/A   Scattered Clouds
1:35 PM 79.5 °F - 63.1 °F 57% 29.96 in 10.0 mi Calm Calm - N/A   Scattered Clouds
1:55 PM 80.1 °F 81.7 °F 64.0 °F 58% 29.95 in 10.0 mi South 3.5 mph - N/A   Clear
2:15 PM 80.1 °F 81.7 °F 64.0 °F 58% 29.95 in 10.0 mi South 3.5 mph - N/A   Scattered Clouds
2:35 PM 81.9 °F 83.2 °F 63.7 °F 54% 29.94 in 10.0 mi SSW 3.5 mph - N/A   Scattered Clouds
2:55 PM 83.1 °F 82.3 °F 55.9 °F 39% 29.94 in 10.0 mi West 8.1 mph 16.1 mph N/A   Scattered Clouds
3:15 PM 84.0 °F - 52.3 °F 33% 29.93 in 10.0 mi West 8.1 mph 17.3 mph N/A   Clear
3:35 PM 83.7 °F 82.3 °F 53.6 °F 35% 29.93 in 10.0 mi West 10.4 mph - N/A   Clear
3:55 PM 84.6 °F - 52.2 °F 33% 29.92 in 10.0 mi West 8.1 mph - N/A   Clear
4:15 PM 84.7 °F - 51.3 °F 31% 29.92 in 10.0 mi West 6.9 mph - N/A   Clear
4:35 PM 84.7 °F - 50.2 °F 30% 29.91 in 10.0 mi WNW 5.8 mph - N/A   Clear
4:55 PM 84.9 °F - 52.2 °F 32% 29.90 in 10.0 mi NW 6.9 mph - N/A   Clear
5:15 PM 84.7 °F - 50.5 °F 31% 29.91 in 10.0 mi NW 6.9 mph - N/A   Clear
5:35 PM 83.5 °F - 52.3 °F 34% 29.91 in 10.0 mi NNW 4.6 mph - N/A   Clear
5:55 PM 85.5 °F 83.7 °F 53.6 °F 33% 29.91 in 10.0 mi West 4.6 mph - N/A   Mostly Cloudy
6:15 PM 82.6 °F 82.2 °F 57.0 °F 42% 29.92 in 10.0 mi NNW 5.8 mph - N/A   Mostly Cloudy
6:35 PM 81.9 °F 82.2 °F 59.9 °F 47% 29.93 in 10.0 mi North 6.9 mph - N/A   Scattered Clouds
6:55 PM 81.5 °F 82.0 °F 59.9 °F 48% 29.93 in 10.0 mi NNE 6.9 mph - N/A   Mostly Cloudy
7:15 PM 81.5 °F 81.6 °F 58.3 °F 45% 29.94 in 10.0 mi NNE 5.8 mph - N/A   Overcast
7:35 PM 80.8 °F 81.1 °F 57.9 °F 46% 29.95 in 10.0 mi ENE 3.5 mph - N/A   Overcast
7:55 PM 79.3 °F - 59.4 °F 50% 29.95 in 10.0 mi ENE 4.6 mph - N/A   Mostly Cloudy
8:15 PM 77.0 °F - 62.8 °F 61% 29.95 in 10.0 mi ENE 3.5 mph - N/A   Mostly Cloudy
8:35 PM 72.7 °F - 65.8 °F 79% 29.97 in 10.0 mi Calm Calm - N/A   Scattered Clouds
8:55 PM 70.5 °F - 66.6 °F 87% 29.97 in 10.0 mi East 3.5 mph - N/A   Scattered Clouds
9:15 PM 70.0 °F - 65.8 °F 87% 29.99 in 10.0 mi ESE 3.5 mph - N/A   Scattered Clouds
9:35 PM 67.1 °F - 65.7 °F 95% 30.00 in 10.0 mi Calm Calm - N/A   Clear
9:55 PM 67.1 °F - 66.2 °F 97% 30.01 in 10.0 mi Calm Calm - N/A   Clear
10:15 PM 66.7 °F - 65.8 °F 97% 30.02 in 10.0 mi Calm Calm - N/A   Clear
10:35 PM 65.7 °F - 65.1 °F 98% 30.03 in 10.0 mi Calm Calm - N/A   Clear
10:55 PM 64.6 °F - 64.2 °F 99% 30.03 in 10.0 mi NNE 3.5 mph - N/A   Clear
11:15 PM 67.5 °F - 65.5 °F 93% 30.03 in 10.0 mi NNE 4.6 mph - N/A   Clear
11:35 PM 65.3 °F - 64.2 °F 96% 30.04 in 10.0 mi NE 3.5 mph - N/A   Clear
11:55 PM 67.5 °F - 65.1 °F 92% 30.05 in 10.0 mi ENE 4.6 mph - N/A   Clear